Location: Izdebno
(52.6670°N, 16.2170°E)
Time: 07:27:31
(UTC+02:00)

Vanguard 1 - Pass Details

Date: 24 February 2024
Orbit: 653 x 3825 km, 34.2° (Epoch: 22 April)

Event Time Altitude Azimuth Distance (km) Brightness Sun altitude
Rises 20:04:38 0° 227° (SW) 5,652 14.3 -24.9°
Reaches altitude 10° 20:08:10 10° 219° (SW) 5,033 13.9 -25.4°
Maximum altitude 20:22:10 38° 158° (SSE) 4,318 12.9 -27.4°
Enters shadow 20:27:28 34° 133° (SE) 4,795 13.0 -28.1°
